GW1008 Weather Reports


Display with metric or nautical units.
time (UTC)temp
F
wind
direction
speed
MPH
gust
MPH
rain 1hr
in
rain 24hr
in
rain mn
in
humidity
%
barometer
mb
20260504081528 47 281 1.0 9.0 0.00 0.00 0.00 70 1013.5
20260504081013 47 280 2.0 11.0 0.00 0.00 0.00 69 1013.5
20260504080511 47 0 1.0 11.0 0.00 0.00 0.00 69 1013.5
20260504050511 35 0 0.0 0.0 0.00 0.00 0.00 90 1013.5
20260504045510 35 0 0.0 0.0 0.00 0.00 0.00 90 1013.4
20260504045016 35 0 0.0 0.0 0.00 0.00 0.00 90 1013.4
20260504044540 35 0 0.0 0.0 0.00 0.00 0.00 89 1013.5
20260504044010 34 0 0.0 0.0 0.00 0.00 0.00 89 1013.6
20260504043510 34 0 0.0 0.0 0.00 0.00 0.00 89 1013.6
20260504043035 34 0 0.0 0.0 0.00 0.00 0.00 88 1013.6
20260504042508 34 0 0.0 0.0 0.00 0.00 0.00 88 1013.6
20260504042010 34 0 0.0 0.0 0.00 0.00 0.00 88 1013.6
20260504041530 34 0 0.0 0.0 0.00 0.00 0.00 88 1013.6
20260504041011 34 0 0.0 0.0 0.00 0.00 0.00 87 1013.7
20260504040510 34 0 0.0 0.0 0.00 0.00 0.00 87 1013.6
20260504040032 34 0 0.0 0.0 0.00 0.00 0.00 87 1013.7
20260504035516 34 0 0.0 0.0 0.00 0.00 0.00 87 1013.8
20260504035010 35 0 0.0 0.0 0.00 0.00 0.00 87 1013.6
20260504034538 35 0 0.0 0.0 0.00 0.00 0.00 87 1013.8
20260504034011 35 0 0.0 2.0 0.00 0.00 0.00 87 1013.8
20260504033515 35 0 0.0 3.0 0.00 0.00 0.00 88 1013.9
20260504033037 35 0 0.0 3.0 0.00 0.00 0.00 88 1013.9
20260504032511 35 0 0.0 3.0 0.00 0.00 0.00 88 1013.8
20260504032009 35 0 0.0 3.0 0.00 0.00 0.00 88 1013.8
20260504031528 35 133 0.0 2.0 0.00 0.00 0.00 88 1013.7
20260504031008 35 0 0.0 2.0 0.00 0.00 0.00 87 1013.6
20260504030510 35 0 0.0 0.0 0.00 0.00 0.00 86 1013.7
20260504030028 35 0 0.0 0.0 0.00 0.00 0.00 86 1013.6
20260504025508 35 0 0.0 0.0 0.00 0.00 0.00 85 1013.6
20260504025009 36 0 0.0 0.0 0.00 0.00 0.00 85 1013.7
20260504024530 36 0 0.0 0.0 0.00 0.00 0.00 85 1013.7
20260504024012 36 0 0.0 0.0 0.00 0.00 0.00 85 1013.8
20260504023513 37 0 0.0 0.0 0.00 0.00 0.00 85 1013.8
20260504023029 37 0 0.0 0.0 0.00 0.00 0.00 85 1013.8
20260504022513 37 0 0.0 0.0 0.00 0.00 0.00 85 1013.8
20260504022010 37 0 0.0 0.0 0.00 0.00 0.00 84 1013.8
20260504021535 38 0 0.0 0.0 0.00 0.00 0.00 84 1013.7
20260504021009 38 0 0.0 0.0 0.00 0.00 0.00 84 1013.7
20260504020510 38 0 0.0 0.0 0.00 0.00 0.00 84 1013.7
20260504020028 39 0 0.0 0.0 0.00 0.00 0.00 84 1013.8
20260504015508 39 0 0.0 0.0 0.00 0.01 0.00 84 1013.8
20260504015009 39 0 0.0 3.0 0.00 0.01 0.00 85 1013.8
20260504014529 39 0 0.0 3.0 0.00 0.01 0.00 85 1014.0
20260504014010 40 133 1.0 3.0 0.00 0.01 0.00 85 1013.9
20260504013509 40 132 1.0 3.0 0.00 0.01 0.00 84 1013.9
20260504013035 40 0 0.0 0.0 0.00 0.01 0.00 85 1013.9
20260504012511 40 0 0.0 0.0 0.00 0.01 0.00 86 1013.9
20260504012010 41 0 0.0 0.0 0.00 0.01 0.00 86 1014.1
20260504011526 41 0 0.0 0.0 0.00 0.01 0.00 86 1013.9
20260504011011 41 0 0.0 0.0 0.00 0.01 0.00 85 1014.0
20260504010518 41 0 0.0 2.0 0.00 0.01 0.00 85 1014.1
20260504010039 41 0 0.0 2.0 0.00 0.01 0.00 85 1014.0
20260504005508 41 0 0.0 0.0 0.00 0.02 0.00 85 1014.0
20260504005009 41 0 0.0 0.0 0.00 0.02 0.00 85 1013.9
20260504004528 41 0 0.0 0.0 0.00 0.02 0.00 86 1013.9
20260504004010 41 0 0.0 0.0 0.00 0.02 0.00 86 1013.9
20260504003523 41 0 0.0 0.0 0.00 0.02 0.00 86 1013.9
20260504003025 42 0 0.0 0.0 0.00 0.02 0.00 86 1013.9
20260504002509 42 0 0.0 0.0 0.00 0.02 0.00 85 1014.0
20260504002010 42 0 0.0 0.0 0.00 0.02 0.00 85 1013.9
20260504001529 42 0 0.0 0.0 0.00 0.02 0.00 85 1013.9
20260504001007 42 0 0.0 0.0 0.00 0.02 0.00 85 1014.0
20260504000508 42 0 0.0 0.0 0.00 0.02 0.00 85 1014.0
20260504000028 42 0 0.0 0.0 0.00 0.02 0.00 85 1013.9
20260503235507 42 0 0.0 0.0 0.00 0.03 0.00 85 1013.9
20260503235008 42 0 0.0 0.0 0.00 0.03 0.00 85 1013.8
20260503234528 42 0 0.0 0.0 0.00 0.03 0.00 85 1013.8
20260503234016 42 0 0.0 0.0 0.00 0.03 0.00 85 1013.8
20260503233508 42 0 0.0 3.0 0.00 0.03 0.00 85 1013.9
20260503233028 42 0 0.0 4.0 0.00 0.03 0.00 85 1013.8
20260503232510 42 128 1.0 4.0 0.00 0.03 0.00 85 1013.8
20260503232016 42 0 0.0 2.0 0.00 0.03 0.00 85 1013.8
20260503231528 43 0 0.0 0.0 0.00 0.03 0.00 86 1013.8
20260503231012 43 0 0.0 0.0 0.00 0.03 0.00 86 1013.7
20260503230509 43 0 0.0 0.0 0.00 0.03 0.00 86 1013.8
20260503230028 43 0 0.0 0.0 0.00 0.03 0.00 86 1013.8
20260503225507 43 0 0.0 0.0 0.00 0.03 0.03 86 1013.8
20260503225006 43 0 0.0 0.0 0.00 0.03 0.03 86 1013.8
20260503224527 43 0 0.0 0.0 0.00 0.03 0.03 86 1013.9
20260503224011 43 0 0.0 0.0 0.00 0.03 0.03 86 1013.8
20260503223511 43 0 0.0 0.0 0.00 0.03 0.03 86 1013.9
20260503223029 42 0 0.0 0.0 0.00 0.03 0.03 87 1013.9
20260503222511 42 0 0.0 0.0 0.00 0.03 0.03 88 1013.9
20260503222010 42 0 0.0 0.0 0.00 0.03 0.03 87 1013.9
20260503221532 42 0 0.0 0.0 0.00 0.03 0.03 87 1013.9
20260503221011 41 0 0.0 0.0 0.00 0.03 0.03 86 1013.8
20260503220511 41 0 0.0 0.0 0.00 0.03 0.03 86 1013.8
20260503220026 41 0 0.0 0.0 0.00 0.03 0.03 83 1013.7
20260503215510 42 0 0.0 0.0 0.00 0.05 0.03 83 1013.8
20260503215011 42 0 0.0 0.0 0.00 0.05 0.03 82 1013.7
20260503214526 43 0 0.0 0.0 0.00 0.05 0.03 83 1013.8
20260503214017 43 0 0.0 0.0 0.00 0.05 0.03 84 1013.7
20260503213514 43 0 0.0 0.0 0.00 0.05 0.03 84 1013.7
20260503213035 43 0 0.0 0.0 0.00 0.05 0.03 85 1013.7
20260503212509 44 0 0.0 0.0 0.00 0.05 0.03 85 1013.7
20260503212012 44 0 0.0 0.0 0.00 0.05 0.03 85 1013.8
20260503211529 44 0 0.0 0.0 0.00 0.05 0.03 84 1013.8
20260503211016 44 0 0.0 0.0 0.00 0.05 0.03 84 1013.8
20260503210512 44 0 0.0 0.0 0.00 0.05 0.03 84 1013.7
20260503210028 44 0 0.0 0.0 0.00 0.05 0.03 84 1013.7
20260503205510 44 0 0.0 0.0 0.00 0.09 0.03 84 1013.7
20260503205015 45 0 0.0 2.0 0.00 0.09 0.03 84 1013.7
20260503204528 45 0 0.0 2.0 0.00 0.09 0.03 84 1013.7
20260503204011 45 0 0.0 0.0 0.00 0.09 0.03 84 1013.5
20260503203509 45 0 0.0 0.0 0.00 0.09 0.03 83 1013.6
20260503203034 45 0 0.0 0.0 0.00 0.09 0.03 83 1013.6
20260503202514 46 0 0.0 0.0 0.00 0.09 0.03 83 1013.4
20260503202010 46 0 0.0 0.0 0.00 0.09 0.03 83 1013.3
20260503201531 46 0 0.0 0.0 0.00 0.09 0.03 82 1013.4
20260503201008 47 0 0.0 0.0 0.00 0.09 0.03 83 1013.3
20260503200510 47 0 0.0 0.0 0.00 0.09 0.03 83 1013.2
20260503200033 47 0 0.0 0.0 0.00 0.09 0.03 83 1013.2
20260503195509 47 0 0.0 0.0 0.00 0.10 0.03 83 1013.2
20260503195012 47 0 0.0 0.0 0.00 0.10 0.03 83 1013.3
20260503194531 48 0 0.0 0.0 0.00 0.10 0.03 83 1013.3
20260503194010 48 0 0.0 0.0 0.00 0.10 0.03 83 1013.3
20260503193511 48 0 0.0 0.0 0.00 0.10 0.03 82 1013.2
20260503193033 48 0 0.0 0.0 0.00 0.10 0.03 82 1013.1
20260503192511 48 0 0.0 0.0 0.00 0.10 0.03 82 1013.1
20260503192017 48 0 0.0 0.0 0.00 0.10 0.03 82 1013.1
20260503191528 48 0 0.0 0.0 0.00 0.10 0.03 82 1013.1
20260503191011 48 0 0.0 0.0 0.00 0.10 0.03 82 1013.1
20260503190512 49 0 0.0 0.0 0.00 0.10 0.03 81 1013.0
20260503190028 49 0 0.0 0.0 0.00 0.10 0.03 81 1013.0
20260503185512 49 0 0.0 0.0 0.00 0.15 0.03 81 1012.9
20260503185011 49 0 0.0 0.0 0.00 0.15 0.03 81 1012.9
20260503184529 49 0 0.0 0.0 0.00 0.15 0.03 81 1012.9
20260503184008 49 0 0.0 0.0 0.00 0.15 0.03 80 1012.9
20260503183520 49 0 0.0 0.0 0.00 0.15 0.03 81 1012.9
20260503183038 49 0 0.0 0.0 0.00 0.15 0.03 80 1013.0
20260503182510 49 0 0.0 0.0 0.00 0.15 0.03 80 1013.0
20260503182013 49 0 0.0 0.0 0.00 0.15 0.03 80 1013.0
20260503181601 49 0 0.0 0.0 0.00 0.15 0.03 79 1012.9
20260503181011 49 0 0.0 0.0 0.00 0.15 0.03 79 1012.8
20260503180510 49 0 0.0 0.0 0.00 0.15 0.03 78 1012.9
20260503180029 49 0 0.0 0.0 0.00 0.15 0.03 79 1012.8
20260503175510 49 0 0.0 0.0 0.00 0.20 0.03 78 1012.8
20260503175010 49 0 0.0 0.0 0.00 0.20 0.03 80 1012.7
20260503174529 49 0 0.0 0.0 0.00 0.20 0.03 80 1012.8
20260503174012 49 0 0.0 0.0 0.00 0.20 0.03 80 1012.7
20260503173511 49 0 0.0 0.0 0.00 0.20 0.03 80 1012.8
20260503173042 49 0 0.0 0.0 0.00 0.20 0.03 80 1012.8
20260503172511 48 0 0.0 0.0 0.00 0.20 0.03 80 1012.8
20260503172010 48 0 0.0 0.0 0.00 0.20 0.03 80 1012.7
20260503171528 48 0 0.0 0.0 0.00 0.20 0.03 80 1012.7
20260503171010 48 0 0.0 0.0 0.00 0.20 0.03 80 1012.8
20260503170513 48 0 0.0 0.0 0.00 0.20 0.03 80 1012.7
20260503151008 50 146 0.0 4.0 0.00 0.26 0.03 77 1013.0
20260503150514 50 0 0.0 2.0 0.00 0.26 0.03 77 1013.1
20260503131007 47 0 0.0 4.0 0.00 0.32 0.03 81 1014.0
20260503130508 47 0 0.0 3.0 0.00 0.32 0.03 83 1014.0
20260503110507 46 74 1.0 5.0 0.00 0.32 0.03 84 1014.4